[[{"header":{"parameterUnit":"m.s-1","parameterCategory":1,"la1":30.2991,"la2":30.254,"lo1":-89.0895,"lo2":-89.0444,"dy":0.0017,"dx":0.0017,"nx":28,"ny":28,"refTime":"2025-06-15T09:00:00:Z","depth":0,"parameterNumber":2,"parameterNumberName":"U-component_of_WINDS"},"data":[0,0,0,0,0,0,0,0,0,0,0,0,0,0,0,0,0,0,0,0,0,0,0,0,0,0,0,0,0,0,0,0,0,0,0,0,0,0,0,0,0,0,0,0,0,0,0,0,0,0,0,0,0,0,0,0,0,0,-0.241,-0.2408,0,-0.2238,-0.2236,-0.2234,-0.2133,-0.2132,-0.2132,-0.2131,-0.1953,-0.1949,-0.1945,0,0,0,0,0,0,0,0,0,0,0,0,0,-0.265,-0.2647,-0.241,-0.2408,-0.2406,-0.2239,-0.2236,-0.2234,-0.2133,-0.2132,-0.2132,-0.2131,-0.1955,-0.195,-0.1944,0,0,0,0,0,0,0,0,0,0,0,0,0,-0.2519,-0.2645,-0.2411,-0.2336,-0.2327,-0.2239,-0.2236,-0.2233,-0.2133,-0.2132,-0.2132,-0.2131,-0.1956,-0.195,-0.1944,-0.1917,0,0,-0.1924,-0.1921,0,0,0,0,0,0,0,0,-0.2527,-0.251,-0.2349,-0.2341,-0.2331,-0.2206,-0.2255,-0.2127,-0.2133,-0.2207,-0.2131,-0.2131,-0.2038,-0.2025,-0.1994,-0.1908,-0.1901,-0.1923,-0.1919,-0.1917,-0.1915,0,0,0,0,0,0,0,-0.2536,-0.2517,-0.2342,-0.2347,-0.2336,-0.231,-0.2291,-0.2231,-0.2128,-0.22,-0.2192,-0.2173,-0.2033,-0.2,-0.1989,-0.1898,-0.1924,-0.1918,-0.1914,-0.1911,-0.1782,-0.1783,0,0,0,0,0,0,-0.2557,-0.2525,-0.2348,-0.2337,-0.2429,-0.2306,-0.2285,-0.2247,-0.2128,-0.211,-0.2174,-0.2169,-0.2012,-0.1997,-0.1982,-0.1943,-0.1917,-0.1911,-0.1907,-0.1782,-0.1782,-0.1783,0,0,0,0,0,0,-0.2563,-0.2542,-0.2355,-0.2429,-0.2403,-0.2303,-0.2261,-0.2244,-0.2211,-0.2109,-0.209,-0.216,-0.2011,-0.1991,-0.1934,-0.1935,-0.1908,-0.1902,-0.1781,-0.1782,-0.1783,-0.1864,0,0,0,0,0,0,-0.257,-0.2545,-0.2534,-0.243,-0.24,-0.231,-0.2261,-0.2241,-0.22,-0.2192,-0.209,-0.2073,-0.2009,-0.1944,-0.1928,-0.1926,-0.1897,-0.1781,-0.1782,-0.1783,-0.1861,-0.1868,-0.1874,0,0,0,0,0,-0.2579,-0.2563,-0.2534,-0.2513,-0.2384,-0.231,-0.2293,-0.222,-0.2201,-0.2189,-0.2123,-0.2076,-0.1938,-0.1939,-0.192,-0.1916,-0.178,-0.1781,-0.1782,-0.1858,-0.1866,-0.1873,0,0,0,0,0,0,-0.2669,-0.2548,-0.2514,-0.2464,-0.2399,-0.2293,-0.2276,-0.2231,-0.2169,-0.2164,-0.2076,-0.2053,-0.2005,-0.1954,-0.1958,-0.1884,-0.1854,-0.1851,-0.1918,-0.1925,-0.1931,-0.1944,-0.1891,0,0,0,0,0,-0.2684,-0.2635,-0.2531,-0.2497,-0.2466,-0.2377,-0.2342,-0.2292,-0.222,-0.2191,-0.2121,-0.2053,-0.1994,-0.1957,-0.1897,-0.1854,-0.183,-0.1841,-0.1848,-0.1853,-0.1852,-0.1825,-0.1829,-0.1787,-0.1787,-0.1786,0,0,-0.2713,-0.264,-0.2614,-0.2513,-0.2456,-0.2407,-0.2354,-0.2304,-0.2266,-0.2183,-0.2125,-0.2072,-0.1989,-0.1939,-0.1913,-0.1896,-0.1859,-0.1855,-0.186,-0.1855,-0.1827,-0.1831,-0.1835,-0.1787,-0.1787,-0.1787,0,0,-0.274,-0.268,-0.2645,-0.259,-0.2504,-0.2445,-0.2437,-0.2339,-0.23,-0.2241,-0.2177,-0.2131,-0.2032,-0.1976,-0.1935,-0.1942,-0.1896,-0.1925,-0.1957,-0.1933,-0.1936,-0.1938,-0.1941,-0.1943,-0.1924,-0.1924,-0.1924,0,-0.2786,-0.2709,-0.2633,-0.2587,-0.2544,-0.2468,-0.2432,-0.2381,-0.2281,-0.2253,-0.2235,-0.2109,-0.2048,-0.1984,-0.1986,-0.1955,-0.1943,-0.1936,-0.1942,-0.1943,-0.1945,-0.1946,-0.1947,-0.1928,-0.1928,-0.1927,-0.1927,0,-0.2771,-0.2719,-0.2701,-0.2607,-0.2562,-0.2521,-0.2439,-0.2403,-0.2357,-0.23,-0.224,-0.2165,-0.2089,-0.207,-0.2024,-0.1999,-0.1991,-0.1959,-0.1927,-0.1954,-0.1954,-0.1954,-0.1934,-0.1932,-0.1931,-0.193,0,0,-0.2849,-0.2714,-0.2709,-0.2665,-0.2566,-0.2524,-0.248,-0.2406,-0.2377,-0.2311,-0.2271,-0.219,-0.2159,-0.2112,-0.206,-0.2038,-0.2049,-0.2008,-0.2005,-0.2018,-0.2017,-0.2042,-0.2044,-0.2019,-0.2018,-0.2018,-0.2024,0,-0.2862,-0.2779,-0.2709,-0.2652,-0.2603,-0.2531,-0.2492,-0.2427,-0.2373,-0.2323,-0.2263,-0.2207,-0.2171,-0.2142,-0.2118,-0.2053,-0.2048,-0.2052,-0.1981,-0.1979,-0.2003,-0.2044,-0.207,-0.2079,-0.2024,-0.2024,-0.2024,0,-0.2865,-0.2802,-0.2741,-0.2647,-0.2624,-0.2591,-0.2518,-0.2471,-0.2396,-0.2358,-0.2307,-0.2252,-0.2202,-0.2176,-0.2106,-0.211,-0.2077,-0.2041,-0.204,-0.203,-0.2003,-0.2035,-0.208,-0.2082,-0.2023,-0.2023,-0.2023,0,-0.2929,-0.2829,-0.2779,-0.2744,-0.2633,-0.2612,-0.2564,-0.2489,-0.2449,-0.2385,-0.2359,-0.229,-0.2252,-0.22,-0.2128,-0.2116,-0.2066,-0.2034,-0.2033,-0.2035,-0.2025,-0.2026,-0.2066,-0.2005,-0.2005,-0.2005,-0.2005,0,-0.295,-0.2915,-0.2806,-0.2776,-0.2735,-0.2655,-0.2616,-0.2563,-0.2496,-0.2454,-0.2387,-0.2348,-0.2256,-0.2206,-0.215,-0.2101,-0.2084,-0.2052,-0.2037,-0.2058,-0.2062,-0.2035,-0.2032,-0.2005,-0.2005,-0.2005,-0.2005,0,-0.3014,-0.294,-0.288,-0.2781,-0.2755,-0.2729,-0.2644,-0.2611,-0.2554,-0.2501,-0.2484,-0.2394,-0.2332,-0.2256,-0.2169,-0.2131,-0.2088,-0.2066,-0.2114,-0.2105,-0.2109,-0.2109,-0.2131,-0.213,-0.2071,-0.2072,-0.2072,0,-0.3032,-0.3004,-0.2901,-0.2868,-0.2823,-0.2771,-0.273,-0.2651,-0.2611,-0.2524,-0.2502,-0.2436,-0.2378,-0.2283,-0.221,-0.2144,-0.2119,-0.2132,-0.2109,-0.2131,-0.2119,-0.2122,-0.2119,-0.2137,-0.2138,-0.2139,-0.214,0,-0.3073,-0.3038,-0.2982,-0.2913,-0.2867,-0.2809,-0.2748,-0.2725,-0.2633,-0.2592,-0.2528,-0.2484,-0.2396,-0.2331,-0.2256,-0.2207,-0.2158,-0.2148,-0.2144,-0.2165,-0.2194,-0.2178,-0.2129,-0.2147,-0.2147,-0.2146,-0.2146,-0.2145,-0.3114,-0.3086,-0.3009,-0.2949,-0.2895,-0.284,-0.2805,-0.2743,-0.2689,-0.2612,-0.2568,-0.2507,-0.2432,-0.2326,-0.2279,-0.2229,-0.2211,-0.2206,-0.2205,-0.2205,-0.2211,-0.2202,-0.2215,-0.2215,-0.2215,-0.2214,-0.2214,0,-0.3151,-0.3099,-0.3044,-0.2962,-0.2915,-0.2874,-0.2804,-0.2768,-0.2714,-0.2649,-0.2594,-0.2522,-0.2458,-0.2381,-0.2312,-0.2287,-0.2263,-0.2272,-0.2273,-0.2262,-0.2231,-0.2241,-0.2292,-0.2292,-0.2292,-0.2292,-0.2292,-0.2292,-0.3165,-0.3115,-0.3071,-0.2993,-0.294,-0.2879,-0.2843,-0.2792,-0.274,-0.2662,-0.2609,-0.2559,-0.2489,-0.2415,-0.2355,-0.2334,-0.2311,-0.2327,-0.2299,-0.2271,-0.2264,-0.2258,-0.2267,-0.2323,-0.2323,-0.2334,-0.2334,-0.2334]},{"header":{"parameterUnit":"m.s-1","parameterCategory":1,"la1":30.2991,"la2":30.254,"lo1":-89.0895,"lo2":-89.0444,"dy":0.0017,"dx":0.0017,"nx":28,"ny":28,"refTime":"2025-06-15T09:00:00:Z","depth":0,"parameterNumber":3,"parameterNumberName":"V-component_of_WINDS"},"data":[0,0,0,0,0,0,0,0,0,0,0,0,0,0,0,0,0,0,0,0,0,0,0,0,0,0,0,0,0,0,0,0,0,0,0,0,0,0,0,0,0,0,0,0,0,0,0,0,0,0,0,0,0,0,0,0,0,0,4.1232,4.1232,0,4.1189,4.1188,4.1188,4.1169,4.1169,4.1169,4.1169,4.1119,4.1118,4.1117,0,0,0,0,0,0,0,0,0,0,0,0,0,4.1293,4.1292,4.1232,4.1232,4.1231,4.1189,4.1188,4.1188,4.1169,4.1169,4.1169,4.1169,4.112,4.1118,4.1117,0,0,0,0,0,0,0,0,0,0,0,0,0,4.126,4.1292,4.1232,4.1217,4.1215,4.1189,4.1188,4.1188,4.1169,4.1169,4.1169,4.1169,4.112,4.1118,4.1116,4.1102,0,0,4.111,4.1109,0,0,0,0,0,0,0,0,4.1262,4.1258,4.1219,4.1218,4.1215,4.1184,4.1192,4.1159,4.1169,4.1186,4.1169,4.1169,4.1141,4.1137,4.1128,4.1099,4.1097,4.111,4.1109,4.1108,4.1107,0,0,0,0,0,0,0,4.1264,4.1259,4.1215,4.1219,4.1216,4.121,4.1206,4.1185,4.1163,4.1184,4.1183,4.1178,4.114,4.113,4.1127,4.1096,4.111,4.1108,4.1107,4.1106,4.1053,4.1052,0,0,0,0,0,0,4.127,4.1261,4.1216,4.1214,4.124,4.1209,4.1204,4.1194,4.1163,4.1159,4.1178,4.1178,4.1134,4.113,4.1125,4.1106,4.1108,4.1106,4.1105,4.1053,4.1053,4.1052,0,0,0,0,0,0,4.1271,4.1266,4.1218,4.1237,4.1231,4.1208,4.1197,4.1193,4.1184,4.1159,4.1154,4.1174,4.1134,4.1128,4.1108,4.1104,4.1105,4.1103,4.1053,4.1053,4.1052,4.1067,0,0,0,0,0,0,4.1273,4.1266,4.1262,4.1237,4.123,4.1203,4.1197,4.1192,4.1181,4.118,4.1153,4.1149,4.1134,4.1111,4.1106,4.1101,4.1101,4.1053,4.1053,4.1053,4.1067,4.1068,4.1068,0,0,0,0,0,4.1275,4.1266,4.1262,4.1256,4.1223,4.1203,4.1198,4.1183,4.1181,4.1175,4.1159,4.1149,4.1105,4.1109,4.1103,4.1098,4.1053,4.1053,4.1053,4.1067,4.1068,4.1068,0,0,0,0,0,0,4.1289,4.1263,4.1257,4.1241,4.1224,4.12,4.1192,4.1184,4.1166,4.1165,4.1145,4.1139,4.1121,4.1107,4.1112,4.1082,4.1078,4.1077,4.1091,4.1092,4.1092,4.1096,4.11,0,0,0,0,0,4.129,4.1277,4.1254,4.1242,4.1234,4.1215,4.1205,4.1195,4.1176,4.1168,4.1151,4.1132,4.1113,4.1102,4.1084,4.1065,4.1059,4.1058,4.1059,4.1059,4.1058,4.1047,4.1047,4.1051,4.1051,4.1051,0,0,4.1292,4.1277,4.1269,4.1244,4.123,4.1216,4.1209,4.1194,4.1182,4.1165,4.1146,4.1132,4.1109,4.109,4.1081,4.1078,4.1055,4.1059,4.1059,4.1058,4.1047,4.1046,4.1046,4.1051,4.1051,4.1051,0,0,4.1289,4.1276,4.1264,4.1251,4.1231,4.1218,4.1215,4.1192,4.1183,4.1164,4.1151,4.1136,4.1105,4.109,4.1078,4.107,4.106,4.1064,4.1066,4.1056,4.1056,4.1055,4.1052,4.1051,4.1063,4.1063,4.1063,0,4.1294,4.1273,4.1259,4.1245,4.1234,4.122,4.1208,4.1195,4.1169,4.1161,4.1159,4.1121,4.1105,4.1082,4.108,4.1071,4.1066,4.1067,4.1057,4.1057,4.1056,4.1053,4.1052,4.1064,4.1064,4.1063,4.1063,0,4.128,4.1266,4.1259,4.1236,4.1225,4.1211,4.1194,4.1183,4.1174,4.1161,4.1141,4.1121,4.1099,4.1092,4.1082,4.1068,4.1067,4.1061,4.1058,4.1056,4.1053,4.1052,4.1065,4.1064,4.1064,4.1064,0,0,4.1283,4.1255,4.1252,4.1242,4.1219,4.1207,4.1193,4.1173,4.1164,4.1147,4.1134,4.1108,4.1104,4.109,4.1078,4.1069,4.1064,4.1064,4.1063,4.1065,4.1046,4.105,4.1049,4.1057,4.1057,4.1057,4.1048,0,4.1277,4.1253,4.124,4.122,4.1207,4.1194,4.1181,4.1165,4.1152,4.1138,4.1123,4.1106,4.1101,4.1092,4.1083,4.1066,4.1059,4.1067,4.1043,4.1043,4.105,4.1047,4.1052,4.1044,4.1046,4.1046,4.1046,0,4.1266,4.1251,4.1231,4.121,4.1204,4.1193,4.1174,4.1161,4.1142,4.1133,4.1119,4.1108,4.109,4.1089,4.1064,4.107,4.1059,4.105,4.1049,4.1046,4.1044,4.1044,4.1042,4.104,4.1044,4.1044,4.1044,0,4.1271,4.1245,4.123,4.1222,4.1197,4.119,4.1179,4.116,4.1149,4.1132,4.1125,4.1105,4.1094,4.1078,4.1061,4.1061,4.1039,4.1035,4.103,4.103,4.1025,4.1026,4.1021,4.1019,4.1019,4.1019,4.1019,0,4.1265,4.1253,4.1232,4.1223,4.1209,4.1193,4.1179,4.1167,4.1151,4.1138,4.1124,4.1112,4.1091,4.1075,4.1061,4.1043,4.1038,4.103,4.1026,4.1031,4.1032,4.1024,4.1024,4.1019,4.1019,4.1019,4.1019,0,4.1267,4.1253,4.1236,4.1214,4.1209,4.1199,4.118,4.117,4.1157,4.1141,4.1136,4.1115,4.1097,4.1078,4.1052,4.1043,4.1025,4.102,4.1032,4.103,4.1026,4.1027,4.1015,4.1013,4.1013,4.1013,4.1013,0,4.1264,4.1255,4.1234,4.1225,4.1215,4.1201,4.119,4.1174,4.1163,4.1142,4.1134,4.1114,4.1098,4.1068,4.105,4.103,4.1025,4.1022,4.1021,4.1027,4.1024,4.1025,4.1024,4.1022,4.1023,4.1023,4.1023,0,4.126,4.1254,4.124,4.1224,4.1212,4.1198,4.1184,4.1177,4.1158,4.1146,4.1128,4.1116,4.109,4.1071,4.1049,4.1036,4.1026,4.1023,4.1021,4.1025,4.1033,4.1029,4.1033,4.1023,4.1023,4.1023,4.1023,4.1023,4.126,4.1251,4.1235,4.122,4.1208,4.1195,4.1185,4.1171,4.1156,4.1136,4.1127,4.1108,4.1089,4.1059,4.1046,4.1031,4.1028,4.1025,4.1024,4.1023,4.1024,4.1036,4.1026,4.1026,4.1026,4.1026,4.1026,0,4.1255,4.1245,4.1231,4.1212,4.12,4.1194,4.1177,4.1167,4.1152,4.1136,4.1121,4.11,4.1081,4.1062,4.1042,4.1033,4.1027,4.1028,4.1028,4.1025,4.1028,4.1032,4.1032,4.1032,4.1032,4.1032,4.1032,4.1032,4.1252,4.1237,4.1229,4.1208,4.1197,4.118,4.1171,4.1159,4.1146,4.1124,4.1109,4.1097,4.1079,4.1058,4.104,4.1035,4.1028,4.1029,4.1023,4.1025,4.1025,4.1025,4.1028,4.1028,4.1028,4.1021,4.1021,4.1021]}]]